Regional Weather Roundup
Issued by NWS

Home | Current Version | Previous Version | Graphics & Text | Print | Product List | Glossary On
Versions: 1 2 3 4 5 6 7 8 9 10 11 12 13 14 15 16 17 18 19 20 21 22 23 24 25 26 27 28 29 30 31 32 33 34 35 36 37 38 39 40 41 42 43 44 45 46 47 48 49 50
693
ASUS43 KFSD 270402
RWRSD

WEATHER ROUNDUP FOR SOUTH DAKOTA
NATIONAL WEATHER SERVICE SIOUX FALLS SD
1100 PM CDT FRI MAY 26 2017

NOTE: "FAIR" INDICATES FEW OR NO CLOUDS BELOW 12,000 FEET WITH NO
SIGNIFICANT WEATHER AND/OR OBSTRUCTIONS TO VISIBILITY.


SDZ001>005-009-010-012>017-270500-
NORTHWEST AND NORTH CENTRAL SOUTH DAKOTA

CITY           SKY/WX    TMP DP  RH WIND       PRES   REMARKS
BUFFALO          N/A     57  36  45 NW6       29.87R
FAITH            N/A     60  38  43 CALM      29.92R
MOBRIDGE       CLOUDY    51  40  65 CALM      29.85S
$$

SDZ012>016-024>037-041>051-057-063-072>074-270500-
SOUTHWEST AND SOUTH CENTRAL SOUTH DAKOTA

CITY           SKY/WX    TMP DP  RH WIND       PRES   REMARKS
RAPID CTY ARPT CLOUDY    51  48  89 E3        29.97R
PIERRE         CLOUDY    63  38  39 W7        29.89R
CUSTER         LGT RAIN  44  41  89 NW3       30.03R
ELLSWORTH AFB  CLOUDY    53  49  86 CALM      29.99R
PHILIP         LGT RAIN  55  49  80 SW10      29.95R
PINE RIDGE     LGT RAIN  52  50  93 CALM      30.00R
WINNER         CLOUDY    62  45  53 W3        29.93R
$$

SDZ004>011-016>023-039-040-270500-
NORTHEAST SOUTH DAKOTA

CITY           SKY/WX    TMP DP  RH WIND       PRES   REMARKS
ABERDEEN       CLOUDY    57  43  59 NW3       29.87R
WATERTOWN      PTCLDY    55  44  66 CALM      29.87F
BROOKINGS      CLEAR     57  45  64 CALM      29.89S
SISSETON         N/A     58  46  64 W8        29.85R
$$

SDZ017-020-022-023-036>040-048>070-270500-
SOUTHEAST SOUTH DAKOTA

CITY           SKY/WX    TMP DP  RH WIND       PRES   REMARKS
SIOUX FALLS    CLOUDY    57  45  64 NW8       29.89S
HURON          CLOUDY    61  44  53 SW3       29.88R
CHAMBERLAIN    CLOUDY    58  50  73 CALM      29.91R
MITCHELL       CLEAR     58  45  62 S3        29.88F
YANKTON        CLEAR     59  48  67 W3        29.90R
$$

ABBREVIATIONS USED IN REMARKS
   TC - TEMPERATURE IN CELSIUS
  WCI - WIND CHILL INDEX
   HX - HEAT INDEX
  VSB - VISIBILITY





USA.gov is the U.S. government's official web portal to all federal, state and local government web resources and services.